Skip Page Navigation
NASA JPL Caltech
NASA Logo - Jet Propulsion Laboratory + View the NASA Portal
+ Center for Near-Earth Object Studies
JPL Home Earth Solar System Stars & Galaxies Technology
JPL Solar System Dynamics
BODIES ORBITS EPHEMERIDES TOOLS PHYSICAL DATA DISCOVERY FAQ SITE MAP
IMPORTANT: The SSD Announcement email list is now available. Major changes are coming in the near future, including possible hostname and/or URL changes. To be notified of such changes, subscribe to this email list.

Please visit this page for more details.


JPL Small-Body Database Browser
Search: [ help ]  
65598 (3059 T-3)
Classification: Main-belt Asteroid          SPK-ID: 2065598
Ephemeris | Orbit Diagram | Orbital Elements | Mission Design | Physical Parameters | Discovery Circumstances ]

[ show orbit diagram ]
Orbital Elements at Epoch 2459000.5 (2020-May-31.0) TDB
Reference: JPL 13 (heliocentric ecliptic J2000)
 Element Value Uncertainty (1-sigma)   Units 
e .06395199051987348 3.6495e-08  
a 2.267390599624535 1.0751e-08 au
q 2.122386457492497 8.4162e-08 au
i 5.843213926345785 5.6396e-06 deg
node 203.1915096844804 3.9196e-05 deg
peri 256.6245897391528 6.1864e-05 deg
M 103.2748818698015 4.9757e-05 deg
tp 2458642.749585489389
(2019-Jun-08.24958549)
0.00017167 TDB
period 1247.061694887102
3.41
8.8695e-06
2.428e-08
d
yr
n .2886785805994876 2.0532e-09 deg/d
Q 2.412394741756574 1.1439e-08 au
  Orbit Determination Parameters
   # obs. used (total)      570  
   data-arc span      15445 days (42.29 yr)  
   first obs. used      1977-10-16  
   last obs. used      2020-01-29  
   planetary ephem.      DE431  
   SB-pert. ephem.      SB431-N16  
   condition code      0  
   norm. resid. RMS      .6201  
   source      ORB  
   producer      Otto Matic  
   solution date      2020-Feb-23 14:42:30  

Additional Information
 Earth MOID = 1.14811 au 
 Jupiter MOID = 2.67455 au 
 T_jup = 3.606 
[ show covariance matrix ]

Ephemeris | Orbit Diagram | Orbital Elements | Mission Design | Physical Parameters | Discovery Circumstances ]

Physical Parameter Table
Parameter Symbol Value Units Sigma Reference Notes
absolute magnitude H 16.5   n/a MPO263849  

65598 (3059 T-3)          Discovered 1977-Oct-16 by van Houten, C. J., van Houten-Groeneveld, I., Gehrels, T. at Palomar
Reference: 20030614/Numbers.arcLast Updated: 2004-04-19

Alternate Designations
 3059 T-3 = 2001 TA73 
Ephemeris | Orbit Diagram | Orbital Elements | Mission Design | Physical Parameters | Discovery Circumstances ]
ABOUT SSD CREDITS/AWARDS PRIVACY/COPYRIGHT GLOSSARY LINKS
FirstGov 2020-Mar-30 16:26 UT
(server date/time)  
NASA Home Page
Site Manager:   Ryan S. Park
Webmaster  Alan B. Chamberlin